Location: Leverkusen
(51.0459°N, 7.0192°E)
Time: 13:03:02
(UTC+01:00)

ISS - Pass Details

Date: 01 February 2019
Orbit: 403 x 411 km, 51.6° (Epoch: 21 February)

Event Time Altitude Azimuth Distance (km) Brightness Sun altitude
Rises 18:54:18 0° 274° (W) 2,336 1.7 -14.5°
Reaches altitude 10° 18:56:23 10° 276° (W) 1,477 0.3 -14.8°
Maximum altitude 18:59:42 79° 2° (N) 423 -3.9 -15.4°
Enters shadow 19:00:51 38° 84° (E) 649 -3.3 -15.5°
